Regional Weather Roundup
Issued by NWS Huntsville, AL

Home | Current Version | Previous Version | Text Only | Print | Product List | Glossary On
Versions: 1 2 3 4 5 6 7 8 9 10 11 12 13 14 15 16 17 18 19 20 21 22 23 24 25 26 27 28 29 30 31 32 33 34 35 36 37 38 39 40 41 42 43 44 45 46 47 48 49 50
000
ASUS44 KHUN 251310
RWRHUN

WEATHER ROUNDUP FOR THE TENNESSEE VALLEY
NATIONAL WEATHER SERVICE HUNTSVILLE AL
800 AM CDT SUN JUN 25 2017

ALZ001>004-251400-
NORTHWEST ALABAMA

CITY           SKY/WX    TMP DP  RH WIND       PRES   REMARKS
COURTLAND HCN    N/A     66 N/A N/A CALM        N/A
RUSSELLVILLE     N/A     64 N/A N/A MISG        N/A
SHOALS AIRPORT CLOUDY    69  55  60 NE6       30.23R
SHOALS TVA RES   N/A     68 N/A N/A MISG        N/A
$$

ALZ005>007-016-251400-
NORTH CENTRAL ALABAMA

CITY           SKY/WX    TMP DP  RH WIND       PRES   REMARKS
CULLMAN AG STN   N/A     64 N/A N/A N3          N/A
DECATUR AP     CLOUDY    66  60  81 N5        30.22R
HUNTSVILLE AP  CLOUDY    68  60  75 N8        30.21R
MERIDIANVILLE  CLOUDY    64  59  82 CALM      30.21S
REDSTONE ARSN  CLOUDY    66  60  81 NE7       30.20R
VINEMONT AP    LGT RAIN  63  60  88 N3        30.22R
$$

ALZ008>010-251400-
NORTHEAST ALABAMA

CITY           SKY/WX    TMP DP  RH WIND       PRES   REMARKS
ALBERTVILLE    CLOUDY    66  64  94 N5        30.19R
FORT PAYNE     NOT AVBL
SCOTTSBORO AP  CLOUDY    66  64  94 N3        30.21R
SCOTTSBORO HCN   N/A     64 N/A N/A MISG        N/A
VALLEY HEAD      N/A     63 N/A N/A MISG        N/A
$$

TNZ076-096-097-251400-
SOUTHEASTERN MIDDLE TENNESSEE

CITY           SKY/WX    TMP DP  RH WIND       PRES   REMARKS
TULLAHOMA      SUNNY     64  55  72 NE5       30.22S
WINCHESTER     SUNNY     63  61  94 CALM        N/A
$$

...SURROUNDING SITES...

CITY           SKY/WX    TMP DP  RH WIND       PRES   REMARKS
ATLANTA        CLOUDY    69  64  84 NW14      30.15R
ANNISTON       CLOUDY    70  62  76 NE5       30.18R
BIRMINGHAM     CLOUDY    69  63  81 N5        30.20R
CHATTANOOGA    CLOUDY    69  56  62 N7        30.19S
CORINTH          N/A    N/A N/A N/A MISG        N/A
DALTON         CLOUDY    64  61  88 N8        30.18S
GADSDEN        CLOUDY    68  63  84 N6        30.19R
GOLDEN TRNGL   PTSUNNY   70  59  68 E5        30.15R
JACKSON TN     CLOUDY    69  59  70 CALM      30.23R
MEMPHIS        CLOUDY    74  58  57 CALM      30.24R
NASHVILLE      MOSUNNY   70  55  59 NW7       30.23R
OXFORD MS      FAIR      64  57  77 CALM      30.25R
ROME           CLOUDY    70  61  73 NW6       30.17R
SAVANNAH       SUNNY     68  63  83 CALM      30.22R
SELMER         SUNNY     68  59  73 CALM      30.22S
TUPELO         CLOUDY    67  60  78 N6        30.21R
TUSCALOOSA     CLOUDY    70  64  81 NE7       30.19R
$$

...GULF COAST WEATHER...

CITY           SKY/WX    TMP DP  RH WIND       PRES   REMARKS
GULFPORT       CLOUDY    79  73  82 N10       30.11R
PASCAGOULA     CLOUDY    79  73  82 N7        30.11R
MOBILE         PTSUNNY   79  72  79 N9        30.13R
GULF SHORES    CLOUDY    78  78 100 N3        30.10R
PENSACOLA      CLOUDY    79  74  84 N7        30.09R
DESTIN         CLOUDY    82  82 100 NW6       30.09R HX  96
PANAMA CITY    PTSUNNY   83  77  80 SW7       30.09R HX  92
APPALACHICOLA  MOSUNNY   83  79  88 VRB5      30.10R HX  94
$$




USA.gov is the U.S. government's official web portal to all federal, state and local government web resources and services.